When you browse on this site, cookies collect data to enhance your experience and personalize the content and advertising you see.
Visit our Privacy Policy to learn more. By continuing to use the site, you agree to this use of cookies and data.
  • In Lithuania
  • List of Countries
  • For 7 days
  • Water Temperature
  • Satellite Maps
  • Weather Map
  • Weather Widgets
  • user-avatar
    Login

    Hourly Weather Volosha

    Today, 10 December, Monday

    Time Temperature Precipitation Wind Pressure Humidity
    00:00 0°C° 0.1 mm 4 mps 735 mmHg 88%
    01:00 0°C° 0.1 mm 4 mps 735 mmHg 89%
    02:00 0°C° 0 mm 3 mps 735 mmHg 92%
    03:00 0°C° 0 mm 3 mps 735 mmHg 92%
    04:00 +1°C° 0 mm 3 mps 735 mmHg 92%
    05:00 +1°C° 0 mm 3 mps 735 mmHg 92%
    06:00 0°C° 0 mm 3 mps 735 mmHg 92%
    07:00 0°C° 0 mm 3 mps 735 mmHg 93%
    08:00 0°C° 0 mm 3 mps 735 mmHg 93%
    09:00 +1°C° 0 mm 3 mps 736 mmHg 92%
    10:00 +1°C° 0 mm 3 mps 736 mmHg 90%
    11:00 +1°C° 0 mm 4 mps 736 mmHg 89%
    12:00 +2°C° 0 mm 3 mps 736 mmHg 89%
    13:00 +2°C° 0 mm 3 mps 737 mmHg 89%
    14:00 +2°C° 0 mm 3 mps 737 mmHg 90%
    15:00 +2°C° 0 mm 3 mps 737 mmHg 91%
    16:00 +1°C° 0 mm 3 mps 737 mmHg 91%
    17:00 +1°C° 0 mm 3 mps 738 mmHg 92%
    18:00 +1°C° 0 mm 3 mps 738 mmHg 92%
    19:00 0°C° 0 mm 4 mps 738 mmHg 92%
    20:00 0°C° 0 mm 4 mps 738 mmHg 91%
    21:00 0°C° 0 mm 3 mps 739 mmHg 91%
    22:00 0°C° 0 mm 3 mps 739 mmHg 92%
    23:00 0°C° 0 mm 3 mps 739 mmHg 92%

    Tomorrow, 11 December, Tuesday

    Time Temperature Precipitation Wind Pressure Humidity
    00:00 -1°C° 0 mm 3 mps 740 mmHg 92%
    01:00 -1°C° 0 mm 3 mps 740 mmHg 92%
    02:00 -1°C° 0 mm 3 mps 740 mmHg 93%
    03:00 -1°C° 0 mm 3 mps 741 mmHg 93%
    04:00 -1°C° 0 mm 2 mps 741 mmHg 94%
    05:00 -1°C° 0 mm 2 mps 741 mmHg 94%
    06:00 -2°C° 0 mm 2 mps 741 mmHg 94%
    07:00 -2°C° 0 mm 2 mps 742 mmHg 95%
    08:00 -2°C° 0 mm 2 mps 742 mmHg 96%
    09:00 -2°C° 0 mm 2 mps 742 mmHg 93%
    10:00 -1°C° 0 mm 2 mps 743 mmHg 90%
    11:00 +1°C° 0 mm 2 mps 743 mmHg 88%
    12:00 +1°C° 0 mm 2 mps 743 mmHg 87%
    13:00 +1°C° 0 mm 2 mps 743 mmHg 86%
    14:00 +2°C° 0 mm 2 mps 743 mmHg 84%
    15:00 +2°C° 0 mm 1 mps 744 mmHg 87%
    16:00 +1°C° 0 mm 1 mps 744 mmHg 90%
    17:00 0°C° 0 mm 1 mps 744 mmHg 92%
    18:00 0°C° 0 mm 1 mps 744 mmHg 93%
    19:00 0°C° 0 mm 1 mps 744 mmHg 93%
    20:00 0°C° 0 mm 1 mps 744 mmHg 93%
    21:00 0°C° 0 mm 1 mps 745 mmHg 94%
    22:00 0°C° 0 mm 1 mps 745 mmHg 94%
    23:00 0°C° 0 mm 1 mps 745 mmHg 94%

    Day after tomorrow, 12 December, Wednesday

    Time Temperature Precipitation Wind Pressure Humidity
    00:00 0°C° 0 mm 1 mps 745 mmHg 95%
    01:00 0°C° 0 mm 1 mps 745 mmHg 95%
    02:00 -2°C° 0 mm 2 mps 745 mmHg 95%
    03:00 -2°C° 0 mm 2 mps 745 mmHg 95%
    04:00 -2°C° 0 mm 2 mps 745 mmHg 95%
    05:00 -2°C° 0 mm 2 mps 745 mmHg 95%
    06:00 -2°C° 0 mm 3 mps 745 mmHg 94%
    07:00 -2°C° 0 mm 3 mps 745 mmHg 94%
    08:00 -2°C° 0 mm 3 mps 745 mmHg 93%
    09:00 -3°C° 0.2 mm 4 mps 745 mmHg 91%
    10:00 -2°C° 0.2 mm 4 mps 744 mmHg 90%
    11:00 -2°C° 0.2 mm 5 mps 744 mmHg 88%
    12:00 -2°C° 0.5 mm 5 mps 744 mmHg 88%
    13:00 -2°C° 0.5 mm 5 mps 744 mmHg 89%
    14:00 -3°C° 0.5 mm 6 mps 743 mmHg 89%
    15:00 -2°C° 0.9 mm 5 mps 743 mmHg 90%
    16:00 -2°C° 0.9 mm 5 mps 743 mmHg 91%
    17:00 -2°C° 0.9 mm 5 mps 743 mmHg 92%
    18:00 -2°C° 0.7 mm 5 mps 743 mmHg 92%
    19:00 -2°C° 0.7 mm 5 mps 742 mmHg 92%
    20:00 -2°C° 0.7 mm 5 mps 742 mmHg 92%
    21:00 -2°C° 0.5 mm 5 mps 742 mmHg 93%
    22:00 -2°C° 0.5 mm 5 mps 742 mmHg 93%
    23:00 -2°C° 0.5 mm 5 mps 742 mmHg 93%

    13 December, Thursday

    Time Temperature Precipitation Wind Pressure Humidity
    00:00 -2°C° 0.5 mm 4 mps 742 mmHg 93%
    01:00 -2°C° 0.5 mm 4 mps 742 mmHg 93%
    02:00 -2°C° 0.5 mm 4 mps 741 mmHg 93%
    03:00 -2°C° 0.3 mm 4 mps 741 mmHg 93%
    04:00 -1°C° 0.3 mm 4 mps 741 mmHg 93%
    05:00 -1°C° 0.3 mm 4 mps 741 mmHg 93%
    06:00 -1°C° 0.4 mm 4 mps 741 mmHg 93%
    07:00 0°C° 0.4 mm 3 mps 741 mmHg 93%
    08:00 0°C° 0.4 mm 3 mps 741 mmHg 93%
    09:00 0°C° 0.3 mm 3 mps 741 mmHg 94%
    10:00 0°C° 0.3 mm 3 mps 741 mmHg 95%
    11:00 0°C° 0.3 mm 3 mps 741 mmHg 96%
    12:00 0°C° 0.3 mm 3 mps 741 mmHg 96%
    13:00 0°C° 0.3 mm 3 mps 741 mmHg 96%
    14:00 0°C° 0.3 mm 3 mps 742 mmHg 97%
    15:00 +1°C° 0.2 mm 2 mps 742 mmHg 96%
    16:00 +1°C° 0.2 mm 2 mps 742 mmHg 96%
    17:00 -1°C° 0.2 mm 2 mps 742 mmHg 96%
    18:00 -1°C° 0.2 mm 2 mps 743 mmHg 96%
    19:00 -1°C° 0.2 mm 2 mps 743 mmHg 96%
    20:00 -1°C° 0.2 mm 2 mps 744 mmHg 96%
    21:00 -1°C° 0.2 mm 2 mps 744 mmHg 96%
    22:00 -1°C° 0.2 mm 2 mps 745 mmHg 96%
    23:00 -1°C° 0.2 mm 2 mps 745 mmHg 96%

    14 December, Friday

    Time Temperature Precipitation Wind Pressure Humidity
    00:00 -1°C° 0.1 mm 2 mps 746 mmHg 96%
    01:00 -1°C° 0.1 mm 2 mps 746 mmHg 96%
    02:00 -1°C° 0.1 mm 2 mps 747 mmHg 96%
    03:00 -1°C° 0.1 mm 2 mps 747 mmHg 96%
    04:00 -1°C° 0.1 mm 2 mps 747 mmHg 96%
    05:00 -1°C° 0.1 mm 2 mps 748 mmHg 96%
    06:00 -1°C° 0.1 mm 2 mps 748 mmHg 96%
    07:00 -1°C° 0.1 mm 2 mps 749 mmHg 96%
    08:00 -1°C° 0.1 mm 2 mps 750 mmHg 96%
    09:00 -1°C° 0.1 mm 2 mps 750 mmHg 96%
    10:00 -1°C° 0.1 mm 2 mps 751 mmHg 96%
    11:00 -1°C° 0.1 mm 2 mps 752 mmHg 96%
    12:00 -1°C° 0 mm 2 mps 752 mmHg 96%
    13:00 -1°C° 0 mm 2 mps 753 mmHg 96%
    14:00 -1°C° 0 mm 2 mps 753 mmHg 97%
    15:00 -1°C° 0 mm 2 mps 753 mmHg 96%
    16:00 -1°C° 0 mm 2 mps 754 mmHg 96%
    17:00 -1°C° 0 mm 2 mps 754 mmHg 95%
    18:00 -1°C° 0 mm 2 mps 755 mmHg 95%
    19:00 -2°C° 0 mm 2 mps 755 mmHg 95%
    20:00 -2°C° 0 mm 2 mps 756 mmHg 95%
    21:00 -2°C° 0 mm 2 mps 756 mmHg 95%
    22:00 -3°C° 0 mm 2 mps 756 mmHg 96%
    23:00 -3°C° 0 mm 2 mps 757 mmHg 96%

    15 December, Saturday

    Time Temperature Precipitation Wind Pressure Humidity
    00:00 -3°C° 0 mm 2 mps 757 mmHg 96%
    01:00 -3°C° 0 mm 2 mps 757 mmHg 96%
    02:00 -3°C° 0 mm 2 mps 757 mmHg 96%
    03:00 -4°C° 0 mm 2 mps 758 mmHg 96%
    04:00 -4°C° 0 mm 2 mps 758 mmHg 96%
    05:00 -4°C° 0 mm 2 mps 758 mmHg 96%
    06:00 -4°C° 0 mm 2 mps 758 mmHg 96%
    07:00 -4°C° 0 mm 2 mps 759 mmHg 96%
    08:00 -4°C° 0 mm 2 mps 759 mmHg 96%
    09:00 -4°C° 0 mm 2 mps 760 mmHg 95%
    10:00 -3°C° 0 mm 2 mps 760 mmHg 95%
    11:00 -3°C° 0 mm 2 mps 760 mmHg 94%
    12:00 -1°C° 0 mm 1 mps 760 mmHg 94%
    13:00 0°C° 0 mm 1 mps 760 mmHg 93%
    14:00 0°C° 0 mm 1 mps 760 mmHg 93%
    15:00 0°C° 0 mm 1 mps 761 mmHg 93%
    16:00 -1°C° 0 mm 1 mps 761 mmHg 94%
    17:00 -1°C° 0 mm 1 mps 761 mmHg 94%
    18:00 -1°C° 0 mm 1 mps 761 mmHg 94%
    19:00 -3°C° 0 mm 2 mps 761 mmHg 94%
    20:00 -3°C° 0 mm 2 mps 762 mmHg 94%
    21:00 -1°C° 0 mm 1 mps 762 mmHg 94%
    22:00 -2°C° 0 mm 1 mps 762 mmHg 94%
    23:00 -2°C° 0 mm 1 mps 762 mmHg 94%
    Show more